カタログに戻る

ARIANE 44LP DEB

運用中GTO
NORAD 27659·DEBRIS·🇫🇷 France

打ち上げ Aug 8, 1989 から Guiana Space Centre

Loading…

TLE

経年Source: Space-Track

元期: Sep 14, 2026, 09:24 UTC

1 27659U 89062P   26257.39194041 -.00000026  00000-0  43871-2 0  9991
2 27659   6.8118 289.2981 7038479  49.7205   8.0235  2.32822466122366

AllMySatでARIANE 44LP DEBをリアルタイム追跡

Download on the App Store